Year,Month,Day,Hour,Minute,Value (Times are PST for temperature in C)
2016,10,24,00,00,11.10
2016,10,24,00,01,11.10
2016,10,24,00,02,11.10
2016,10,24,00,03,11.10
2016,10,24,00,04,11.10
2016,10,24,00,05,11.10
2016,10,24,00,06,11.10
2016,10,24,00,07,11.10
2016,10,24,00,08,11.10
2016,10,24,00,09,11.10
2016,10,24,00,10,11.10
2016,10,24,00,11,11.10
2016,10,24,00,12,11.10
2016,10,24,00,13,11.10
2016,10,24,00,14,11.10
2016,10,24,00,15,11.10
2016,10,24,00,16,11.10
2016,10,24,00,17,11.10
2016,10,24,00,18,11.10
2016,10,24,00,19,11.10
2016,10,24,00,20,11.10
2016,10,24,00,21,11.10
2016,10,24,00,22,11.10
2016,10,24,00,23,11.10
2016,10,24,00,24,11.10
2016,10,24,00,25,11.10
2016,10,24,00,26,11.10
2016,10,24,00,27,11.10
2016,10,24,00,28,11.10
2016,10,24,00,29,11.10
2016,10,24,00,30,11.10
2016,10,24,00,31,11.10
2016,10,24,00,32,11.10
2016,10,24,00,33,11.10
2016,10,24,00,34,11.10
2016,10,24,00,35,11.10
2016,10,24,00,36,11.10
2016,10,24,00,37,11.00
2016,10,24,00,38,10.90
2016,10,24,00,39,10.90
2016,10,24,00,40,10.90
2016,10,24,00,41,10.90
2016,10,24,00,42,10.90
2016,10,24,00,43,10.90
2016,10,24,00,44,10.90
2016,10,24,00,45,10.90
2016,10,24,00,46,10.90
2016,10,24,00,47,10.90
2016,10,24,00,48,10.90
2016,10,24,00,49,10.90
2016,10,24,00,50,10.90
2016,10,24,00,51,10.90
2016,10,24,00,52,10.90
2016,10,24,00,53,10.90
2016,10,24,00,54,10.90
2016,10,24,00,55,10.90
2016,10,24,00,56,10.90
2016,10,24,00,57,10.90
2016,10,24,00,58,10.90
2016,10,24,00,59,10.90
2016,10,24,01,00,10.90
2016,10,24,01,01,10.90
2016,10,24,01,02,10.90
2016,10,24,01,03,10.90
2016,10,24,01,04,10.90
2016,10,24,01,05,10.90
2016,10,24,01,06,10.90
2016,10,24,01,07,10.90
2016,10,24,01,08,10.90
2016,10,24,01,09,10.90
2016,10,24,01,10,10.90
2016,10,24,01,11,10.90
2016,10,24,01,12,10.90
2016,10,24,01,13,10.90
2016,10,24,01,14,10.90
2016,10,24,01,15,10.90
2016,10,24,01,16,10.90
2016,10,24,01,17,10.90
2016,10,24,01,18,10.90
2016,10,24,01,19,10.90
2016,10,24,01,20,10.90
2016,10,24,01,21,10.90
2016,10,24,01,22,10.90
2016,10,24,01,23,10.90
2016,10,24,01,24,10.90
2016,10,24,01,25,10.90
2016,10,24,01,26,10.90
2016,10,24,01,27,10.90
2016,10,24,01,28,10.90
2016,10,24,01,29,10.90
2016,10,24,01,30,10.90
2016,10,24,01,31,10.90
2016,10,24,01,32,10.90
2016,10,24,01,33,10.90
2016,10,24,01,34,10.80
2016,10,24,01,35,10.80
2016,10,24,01,36,10.80
2016,10,24,01,37,10.80
2016,10,24,01,38,10.80
2016,10,24,01,39,10.80
2016,10,24,01,40,10.80
2016,10,24,01,41,10.80
2016,10,24,01,42,10.80
2016,10,24,01,43,10.80
2016,10,24,01,44,10.80
2016,10,24,01,45,10.80
2016,10,24,01,46,10.80
2016,10,24,01,47,10.80
2016,10,24,01,48,10.80
2016,10,24,01,49,10.80
2016,10,24,01,50,10.80
2016,10,24,01,51,10.80
2016,10,24,01,52,10.80
2016,10,24,01,53,10.80
2016,10,24,01,54,10.80
2016,10,24,01,55,10.80
2016,10,24,01,56,10.80
2016,10,24,01,57,10.80
2016,10,24,01,58,10.80
2016,10,24,01,59,10.80
2016,10,24,02,00,10.80
2016,10,24,02,01,10.90
2016,10,24,02,02,10.90
2016,10,24,02,03,10.90
2016,10,24,02,04,10.90
2016,10,24,02,05,10.90
2016,10,24,02,06,10.90
2016,10,24,02,07,10.90
2016,10,24,02,08,10.90
2016,10,24,02,09,10.90
2016,10,24,02,10,10.90
2016,10,24,02,11,10.90
2016,10,24,02,12,10.90
2016,10,24,02,13,10.90
2016,10,24,02,14,10.90
2016,10,24,02,15,10.90
2016,10,24,02,16,10.90
2016,10,24,02,17,10.90
2016,10,24,02,18,10.90
2016,10,24,02,19,10.90
2016,10,24,02,20,10.90
2016,10,24,02,21,10.90
2016,10,24,02,22,10.90
2016,10,24,02,23,10.90
2016,10,24,02,24,10.90
2016,10,24,02,25,10.90
2016,10,24,02,26,10.90
2016,10,24,02,27,10.90
2016,10,24,02,28,10.90
2016,10,24,02,29,10.90
2016,10,24,02,30,10.90
2016,10,24,02,31,10.90
2016,10,24,02,32,10.90
2016,10,24,02,33,10.90
2016,10,24,02,34,10.90
2016,10,24,02,35,10.90
2016,10,24,02,36,10.90
2016,10,24,02,37,10.90
2016,10,24,02,38,10.90
2016,10,24,02,39,10.90
2016,10,24,02,40,10.90
2016,10,24,02,41,10.90
2016,10,24,02,42,10.90
2016,10,24,02,43,10.90
2016,10,24,02,44,10.90
2016,10,24,02,45,10.90
2016,10,24,02,46,10.90
2016,10,24,02,47,10.90
2016,10,24,02,48,10.90
2016,10,24,02,49,10.90
2016,10,24,02,50,10.90
2016,10,24,02,51,10.90
2016,10,24,02,52,10.90
2016,10,24,02,53,10.90
2016,10,24,02,54,10.90
2016,10,24,02,55,10.90
2016,10,24,02,56,10.90
2016,10,24,02,57,10.90
2016,10,24,02,58,10.90
2016,10,24,02,59,11.00
2016,10,24,03,00,11.10
2016,10,24,03,01,11.10
2016,10,24,03,02,11.10
2016,10,24,03,03,11.10
2016,10,24,03,04,11.10
2016,10,24,03,05,11.10
2016,10,24,03,06,11.10
2016,10,24,03,07,11.10
2016,10,24,03,08,11.10
2016,10,24,03,09,11.10
2016,10,24,03,10,11.10
2016,10,24,03,11,11.10
2016,10,24,03,12,11.10
2016,10,24,03,13,11.10
2016,10,24,03,14,11.10
2016,10,24,03,15,11.10
2016,10,24,03,16,11.10
2016,10,24,03,17,11.20
2016,10,24,03,18,11.20
2016,10,24,03,19,11.20
2016,10,24,03,20,11.20
2016,10,24,03,21,11.20
2016,10,24,03,22,11.20
2016,10,24,03,23,11.20
2016,10,24,03,24,11.20
2016,10,24,03,25,11.20
2016,10,24,03,26,11.20
2016,10,24,03,27,11.30
2016,10,24,03,28,11.30
2016,10,24,03,29,11.30
2016,10,24,03,30,11.30
2016,10,24,03,31,11.30
2016,10,24,03,32,11.30
2016,10,24,03,33,11.30
2016,10,24,03,34,11.30
2016,10,24,03,35,11.30
2016,10,24,03,36,11.30
2016,10,24,03,37,11.30
2016,10,24,03,38,11.30
2016,10,24,03,39,11.30
2016,10,24,03,40,11.30
2016,10,24,03,41,11.30
2016,10,24,03,42,11.30
2016,10,24,03,43,11.30
2016,10,24,03,44,11.30
2016,10,24,03,45,11.30
2016,10,24,03,46,11.30
2016,10,24,03,47,11.30
2016,10,24,03,48,11.30
2016,10,24,03,49,11.30
2016,10,24,03,50,11.30
2016,10,24,03,51,11.30
2016,10,24,03,52,11.30
2016,10,24,03,53,11.30
2016,10,24,03,54,11.30
2016,10,24,03,55,11.30
2016,10,24,03,56,11.30
2016,10,24,03,57,11.30
2016,10,24,03,58,11.30
2016,10,24,03,59,11.30
2016,10,24,04,00,11.30
2016,10,24,04,01,11.30
2016,10,24,04,02,11.30
2016,10,24,04,03,11.30
2016,10,24,04,04,11.30
2016,10,24,04,05,11.30
2016,10,24,04,06,11.30
2016,10,24,04,07,11.30
2016,10,24,04,08,11.30
2016,10,24,04,09,11.30
2016,10,24,04,10,11.30
2016,10,24,04,11,11.30
2016,10,24,04,12,11.40
2016,10,24,04,13,11.40
2016,10,24,04,14,11.40
2016,10,24,04,15,11.40
2016,10,24,04,16,11.40
2016,10,24,04,17,11.40
2016,10,24,04,18,11.40
2016,10,24,04,19,11.40
2016,10,24,04,20,11.40
2016,10,24,04,21,11.40
2016,10,24,04,22,11.40
2016,10,24,04,23,11.40
2016,10,24,04,24,11.40
2016,10,24,04,25,11.40
2016,10,24,04,26,11.40
2016,10,24,04,27,11.40
2016,10,24,04,28,11.40
2016,10,24,04,29,11.40
2016,10,24,04,30,11.40
2016,10,24,04,31,11.40
2016,10,24,04,32,11.40
2016,10,24,04,33,11.40
2016,10,24,04,34,11.40
2016,10,24,04,35,11.40
2016,10,24,04,36,11.40
2016,10,24,04,37,11.40
2016,10,24,04,38,11.40
2016,10,24,04,39,11.40
2016,10,24,04,40,11.40
2016,10,24,04,41,11.40
2016,10,24,04,42,11.40
2016,10,24,04,43,11.40
2016,10,24,04,44,11.40
2016,10,24,04,45,11.40
2016,10,24,04,46,11.40
2016,10,24,04,47,11.40
2016,10,24,04,48,11.40
2016,10,24,04,49,11.40
2016,10,24,04,50,11.40
2016,10,24,04,51,11.40
2016,10,24,04,52,11.40
2016,10,24,04,53,11.40
2016,10,24,04,54,11.40
2016,10,24,04,55,11.40
2016,10,24,04,56,11.40
2016,10,24,04,57,11.40
2016,10,24,04,58,11.40
2016,10,24,04,59,11.40
2016,10,24,05,00,11.40
2016,10,24,05,01,11.40
2016,10,24,05,02,11.40
2016,10,24,05,03,11.40
2016,10,24,05,04,11.40
2016,10,24,05,05,11.40
2016,10,24,05,06,11.40
2016,10,24,05,07,11.50
2016,10,24,05,08,11.60
2016,10,24,05,09,11.60
2016,10,24,05,10,11.60
2016,10,24,05,11,11.60
2016,10,24,05,12,11.50
2016,10,24,05,13,11.50
2016,10,24,05,14,11.50
2016,10,24,05,15,11.60
2016,10,24,05,16,11.60
2016,10,24,05,17,11.60
2016,10,24,05,18,11.60
2016,10,24,05,19,11.60
2016,10,24,05,20,11.60
2016,10,24,05,21,11.60
2016,10,24,05,22,11.60
2016,10,24,05,23,11.60
2016,10,24,05,24,11.60
2016,10,24,05,25,11.60
2016,10,24,05,26,11.60
2016,10,24,05,27,11.60
2016,10,24,05,28,11.60
2016,10,24,05,29,11.60
2016,10,24,05,30,11.60
2016,10,24,05,31,11.60
2016,10,24,05,32,11.60
2016,10,24,05,33,11.60
2016,10,24,05,34,11.60
2016,10,24,05,35,11.60
2016,10,24,05,36,11.60
2016,10,24,05,37,11.60
2016,10,24,05,38,11.60
2016,10,24,05,39,11.60
2016,10,24,05,40,11.60
2016,10,24,05,41,11.60
2016,10,24,05,42,11.60
2016,10,24,05,43,11.60
2016,10,24,05,44,11.60
2016,10,24,05,45,11.60
2016,10,24,05,46,11.60
2016,10,24,05,47,11.60
2016,10,24,05,48,11.60
2016,10,24,05,49,11.60
2016,10,24,05,50,11.60
2016,10,24,05,51,11.60
2016,10,24,05,52,11.60
2016,10,24,05,53,11.60
2016,10,24,05,54,11.60
2016,10,24,05,55,11.60
2016,10,24,05,56,11.60
2016,10,24,05,57,11.60
2016,10,24,05,58,11.60
2016,10,24,05,59,11.60
2016,10,24,06,00,11.60
2016,10,24,06,01,11.60
2016,10,24,06,02,11.60
2016,10,24,06,03,11.60
2016,10,24,06,04,11.60
2016,10,24,06,05,11.60
2016,10,24,06,06,11.60
2016,10,24,06,07,11.60
2016,10,24,06,08,11.60
2016,10,24,06,09,11.60
2016,10,24,06,10,11.60
2016,10,24,06,11,11.60
2016,10,24,06,12,11.60
2016,10,24,06,13,11.60
2016,10,24,06,14,11.60
2016,10,24,06,15,11.60
2016,10,24,06,16,11.60
2016,10,24,06,17,11.60
2016,10,24,06,18,11.60
2016,10,24,06,19,11.60
2016,10,24,06,20,11.60
2016,10,24,06,21,11.60
2016,10,24,06,22,11.50
2016,10,24,06,23,11.40
2016,10,24,06,24,11.40
2016,10,24,06,25,11.40
2016,10,24,06,26,11.40
2016,10,24,06,27,11.50
2016,10,24,06,28,11.60
2016,10,24,06,29,11.60
2016,10,24,06,30,11.60
2016,10,24,06,31,11.60
2016,10,24,06,32,11.60
2016,10,24,06,33,11.60
2016,10,24,06,34,11.60
2016,10,24,06,35,11.60
2016,10,24,06,36,11.60
2016,10,24,06,37,11.60
2016,10,24,06,38,11.60
2016,10,24,06,39,11.60
2016,10,24,06,40,11.60
2016,10,24,06,41,11.60
2016,10,24,06,42,11.60
2016,10,24,06,43,11.60
2016,10,24,06,44,11.60
2016,10,24,06,45,11.60
2016,10,24,06,46,11.60
2016,10,24,06,47,11.60
2016,10,24,06,48,11.60
2016,10,24,06,49,11.60
2016,10,24,06,50,11.60
2016,10,24,06,51,11.60
2016,10,24,06,52,11.60
2016,10,24,06,53,11.60
2016,10,24,06,54,11.60
2016,10,24,06,55,11.60
2016,10,24,06,56,11.60
2016,10,24,06,57,11.60
2016,10,24,06,58,11.60
2016,10,24,06,59,11.60
2016,10,24,07,00,11.60
2016,10,24,07,01,11.60
2016,10,24,07,02,11.60
2016,10,24,07,03,11.60
2016,10,24,07,04,11.60
2016,10,24,07,05,11.60
2016,10,24,07,06,11.60
2016,10,24,07,07,11.60
2016,10,24,07,08,11.60
2016,10,24,07,09,11.60
2016,10,24,07,10,11.60
2016,10,24,07,11,11.60
2016,10,24,07,12,11.60
2016,10,24,07,13,11.60
2016,10,24,07,14,11.60
2016,10,24,07,15,11.60
2016,10,24,07,16,11.60
2016,10,24,07,17,11.60
2016,10,24,07,18,11.60
2016,10,24,07,19,11.60
2016,10,24,07,20,11.60
2016,10,24,07,21,11.60
2016,10,24,07,22,11.60
2016,10,24,07,23,11.60
2016,10,24,07,24,11.50
2016,10,24,07,25,11.50
2016,10,24,07,26,11.40
2016,10,24,07,27,11.40
2016,10,24,07,28,11.40
2016,10,24,07,29,11.40
2016,10,24,07,30,11.40
2016,10,24,07,31,11.40
2016,10,24,07,32,11.40
2016,10,24,07,33,11.40
2016,10,24,07,34,11.40
2016,10,24,07,35,11.40
2016,10,24,07,36,11.40
2016,10,24,07,37,11.40
2016,10,24,07,38,11.40
2016,10,24,07,39,11.40
2016,10,24,07,40,11.40
2016,10,24,07,41,11.40
2016,10,24,07,42,11.40
2016,10,24,07,43,11.40
2016,10,24,07,44,11.40
2016,10,24,07,45,11.40
2016,10,24,07,46,11.40
2016,10,24,07,47,11.40
2016,10,24,07,48,11.40
2016,10,24,07,49,11.40
2016,10,24,07,50,11.40
2016,10,24,07,51,11.40
2016,10,24,07,52,11.40
2016,10,24,07,53,11.40
2016,10,24,07,54,11.40
2016,10,24,07,55,11.40
2016,10,24,07,56,11.40
2016,10,24,07,57,11.40
2016,10,24,07,58,11.40
2016,10,24,07,59,11.40
2016,10,24,08,00,11.40
2016,10,24,08,01,11.40
2016,10,24,08,02,11.40
2016,10,24,08,03,11.40
2016,10,24,08,04,11.40
2016,10,24,08,05,11.40
2016,10,24,08,06,11.40
2016,10,24,08,07,11.40
2016,10,24,08,08,11.40
2016,10,24,08,09,11.40
2016,10,24,08,10,11.40
2016,10,24,08,11,11.40
2016,10,24,08,12,11.40
2016,10,24,08,13,11.40
2016,10,24,08,14,11.40
2016,10,24,08,15,11.40
2016,10,24,08,16,11.40
2016,10,24,08,17,11.40
2016,10,24,08,18,11.40
2016,10,24,08,19,11.40
2016,10,24,08,20,11.40
2016,10,24,08,21,11.40
2016,10,24,08,22,11.40
2016,10,24,08,23,11.40
2016,10,24,08,24,11.40
2016,10,24,08,25,11.40
2016,10,24,08,26,11.40
2016,10,24,08,27,11.40
2016,10,24,08,28,11.40
2016,10,24,08,29,11.40
2016,10,24,08,30,11.40
2016,10,24,08,31,11.40
2016,10,24,08,32,11.40
2016,10,24,08,33,11.40
